Weather History for Meeker, CO

Change the Weather History Date:

Thursday, February 21, 2013

  Actual Average Record
Temperature  
Mean Temperature 21 °F 27 °F  
Max Temperature 28 °F 40 °F 55 °F (2000)
Min Temperature 13 °F 14 °F -2 °F (2006)
Degree Days  
Heating Degree Days 44 38  
Month to date heating degree days 914 866  
Since 1 July heating degree days 5652 5547  
Cooling Degree Days 0 0  
Month to date cooling degree days 0 0  
Year to date cooling degree days 0 0  
Moisture  
Dew Point 15 °F    
Average Humidity 77    
Maximum Humidity 92    
Minimum Humidity 62    
Precipitation  
Precipitation T in 0.04 in 0.19 in (2001)
Month to date precipitation 0.19 0.75  
Year to date precipitation 0.88 1.62  
Sea Level Pressure  
Sea Level Pressure 29.81 in    
Wind  
Wind Speed 3 mph (East)    
Max Wind Speed 12 mph    
Max Gust Speed 15 mph    
Visibility 7 miles    
Events Snow    
T = Trace of Precipitation, MM = Missing Value Source: NWS Daily Summary

Daily Weather History Graph

Daily Weather History Graph

Search for Another Location

Airport:

Trip Planner

Search our weather history database for the weather conditions in past years. The results will help you decide how hot, cold, wet, or windy it might be!

Date:

Astronomy

Feb. 21, 2013 Rise Set
Actual Time 6:56 AM MST 5:54 PM MST
Civil Twilight 6:28 AM MST 6:22 PM MST
Nautical Twilight 5:57 AM MST 6:53 PM MST
Astronomical Twilight 5:25 AM MST 7:25 PM MST
Moon 2:12 PM MST (2/21) 4:02 AM MST (2/21)
Length of Visible Light 11h 53m
Length of Day
10h 58m
Waxing Gibbous, 84% of the Moon is Illuminated
Feb 21
Waxing Gibbous
Feb 25
Full
Mar 4
Last Quarter
Mar 11
New
Mar 19
First Quarter

Hourly Weather History & Observations

Time (MST) Temp. Windchill Dew Point Humidity Pressure Visibility Wind Dir Wind Speed Gust Speed Precip Events Conditions
12:53 AM 24.1 °F 18.2 °F 16.0 °F 71% 29.62 in 10.0 mi WSW 4.6 mph - N/A   Overcast
1:53 AM 23.0 °F 18.4 °F 16.0 °F 74% 29.62 in 10.0 mi NNW 3.5 mph - N/A   Overcast
2:53 AM 25.0 °F 15.5 °F 15.1 °F 66% 29.61 in 10.0 mi NW 9.2 mph - N/A   Overcast
4:02 AM 21.2 °F 16.4 °F 17.6 °F 86% 29.63 in 2.5 mi SE 3.5 mph - 0.00 in Snow Light Snow
4:53 AM 21.9 °F - 19.0 °F 89% 29.68 in 2.0 mi Calm Calm - 0.00 in Snow Light Snow
5:24 AM 21.2 °F - 17.6 °F 86% 29.66 in 4.0 mi Calm Calm - 0.00 in Snow Light Snow
5:53 AM 21.9 °F - 18.0 °F 85% 29.72 in 4.0 mi Calm Calm - 0.00 in Snow Light Snow
6:23 AM 21.2 °F 14.9 °F 15.8 °F 80% 29.68 in 6.0 mi West 4.6 mph - 0.00 in Snow Light Snow
6:53 AM 21.9 °F 15.7 °F 15.1 °F 75% 29.74 in 10.0 mi NW 4.6 mph - 0.00 in   Overcast
7:53 AM 21.0 °F 16.2 °F 17.1 °F 85% 29.81 in 10.0 mi ENE 3.5 mph - N/A   Overcast
8:53 AM 21.9 °F - 15.1 °F 75% 29.84 in 10.0 mi Calm Calm - N/A   Overcast
9:03 AM 21.2 °F - 15.8 °F 80% 29.75 in 10.0 mi Calm Calm - N/A   Overcast
10:50 AM 24.8 °F 19.1 °F 12.2 °F 59% 29.78 in 10.0 mi ENE 4.6 mph - N/A   Overcast
10:53 AM 25.0 °F 20.7 °F 14.0 °F 63% 29.85 in 10.0 mi Variable 3.5 mph - N/A   Overcast
11:07 AM 26.6 °F - 14.0 °F 59% 29.79 in 10.0 mi Calm Calm - N/A   Overcast
11:18 AM 24.8 °F 19.1 °F 14.0 °F 64% 29.79 in 10.0 mi East 4.6 mph - N/A   Overcast
11:44 AM 26.6 °F 22.6 °F 14.0 °F 59% 29.79 in 10.0 mi South 3.5 mph - N/A   Overcast
11:53 AM 25.0 °F 18.1 °F 15.1 °F 66% 29.86 in 10.0 mi SSW 5.8 mph - N/A   Overcast
12:05 PM 24.8 °F 16.1 °F 15.8 °F 69% 29.79 in 10.0 mi SSW 8.1 mph - N/A   Overcast
12:32 PM 24.8 °F 17.9 °F 15.8 °F 69% 29.79 in 9.0 mi SSW 5.8 mph - N/A   Overcast
12:53 PM 25.0 °F 17.1 °F 18.0 °F 75% 29.86 in 5.0 mi SSW 6.9 mph - 0.00 in Snow Light Snow
1:23 PM 24.8 °F 19.1 °F 19.4 °F 80% 29.78 in 1.8 mi South 4.6 mph - 0.00 in Snow Light Snow
1:53 PM 26.1 °F - 19.9 °F 78% 29.86 in 1.2 mi Calm Calm - 0.00 in Snow Light Snow
2:35 PM 26.6 °F - 19.4 °F 74% 29.79 in 3.0 mi Calm Calm - 0.00 in Snow Light Snow
2:46 PM 26.6 °F - 19.4 °F 74% 29.79 in 3.0 mi Calm Calm - 0.00 in Snow Light Snow
2:53 PM 28.0 °F - 19.9 °F 72% 29.84 in 5.0 mi Calm Calm - 0.00 in   Haze
3:53 PM 27.0 °F - 19.0 °F 72% 29.87 in 4.0 mi Calm Calm - 0.00 in   Haze
4:53 PM 26.1 °F 21.9 °F 17.1 °F 69% 29.89 in 6.0 mi East 3.5 mph - 0.00 in Snow Light Snow
5:53 PM 25.0 °F - 15.1 °F 66% 29.90 in 10.0 mi Calm Calm - 0.00 in   Overcast
6:53 PM 21.0 °F 16.2 °F 14.0 °F 74% 29.94 in 10.0 mi NE 3.5 mph - N/A   Overcast
7:53 PM 17.1 °F 10.0 °F 10.0 °F 74% 29.97 in 10.0 mi NE 4.6 mph - N/A   Mostly Cloudy
8:53 PM 14.0 °F 8.2 °F 9.0 °F 80% 29.99 in 10.0 mi NE 3.5 mph - N/A   Mostly Cloudy
9:53 PM 16.0 °F 10.4 °F 10.9 °F 81% 30.00 in 10.0 mi East 3.5 mph - N/A   Overcast
10:53 PM 16.0 °F - 10.0 °F 77% 29.99 in 10.0 mi Calm Calm - N/A   Overcast
11:42 PM 17.6 °F - 12.2 °F 79% 29.89 in 2.5 mi Calm Calm - 0.00 in Snow Light Snow
11:50 PM 17.6 °F - 12.2 °F 79% 29.89 in 3.0 mi Calm Calm - 0.00 in Snow Light Snow
11:51 PM 18.0 °F 12.7 °F 12.9 °F 81% 30.00 in 3.0 mi NNW 3.5 mph - 0.00 in Snow Light Snow